Notices

What's New in latest Release from April 7th, 2021:

- Updated Glossary, including Speed of Maximum Gust, and Total Hourly Precipitation

- Updated national and regional climate services offices contacts and prices information

- Addition of station inventory lists for 1981-2010, 1971-2000, and 1961-1990 Normals.

If you haven't already, please take our survey and provide feedback about our website: https://eccc.sondage-survey.ca/f/LanguageSelection.aspx?s=442ca660-fcf1-47c0-95a9-59707d6fd709

Hourly Data Report for July 06, 2018

OTTAWA INTL A
ONTARIO
Current Station Operator: NAVCAN

45°19'00.000" N
75°40'00.000" W
114.90 m
6106001
71628
YOW

Download Data

Hourly Data (July 2018)
Hourly Data Report for July 6, 2018
TIME
LST
Temp Definition
°C
Dew Point Definition
°C
Rel Hum Definition
%
Precip. Amount Definition
mm

Wind Dir Definition
10's deg

Wind Spd Definition
km/h
Visibility Definition
km
Stn Press Definition
kPa
Hmdx Definition


Wind Chill Definition


Weather Definition


00:00 26.8 21.5 73   26 21 24.1 99.91 36   LegendNANA
01:00 25.5 21.3 77   26 19 24.1 99.87 34   Mostly Cloudy
02:00 24.8 21.2 80   26 17 24.1 99.89 33   LegendNANA
03:00 24.6 20.8 79   30 18 24.1 99.92 33   LegendNANA
04:00 23.4 17.0 67   32 39 24.1 100.01 29   Mainly Clear
05:00 21.5 12.6 57   33 35 24.1 100.15     LegendNANA
06:00 20.3 10.8 54   33 46 24.1 100.27     LegendNANA
07:00 21.1 10.8 51   32 27 24.1 100.40     Mainly Clear
08:00 20.7 9.4 48   32 32 24.1 100.50     LegendNANA
09:00 19.6 8.6 49   31 40 24.1 100.62     LegendNANA
10:00 18.6 7.2 47   33 30 24.1 100.70     Mostly Cloudy
11:00 19.3 6.9 44   32 34 24.1 100.77     LegendNANA
12:00 19.0 6.6 44   33 30 24.1 100.83     LegendNANA
13:00 19.1 7.0 45   32 25 24.1 100.87     Mostly Cloudy
14:00 20.1 7.4 43   33 36 24.1 100.88     LegendNANA
15:00 22.0 6.6 37   33 30 24.1 100.90     LegendNANA
16:00 20.2 6.2 40   33 30 24.1 100.89     Mainly Clear
17:00 20.0 4.9 37   32 28 24.1 100.91     LegendNANA
18:00 20.3 4.7 35   33 24 24.1 100.93     LegendNANA
19:00 19.5 4.5 37   32 26 24.1 100.96     Clear
20:00 17.4 5.0 44   31 13 24.1 101.00     LegendNANA
21:00 15.6 6.6 54   24 8 24.1 101.07     LegendNANA
22:00 14.5 6.2 57   24 10 24.1 101.11     Clear
23:00 13.1 6.2 63   23 10 24.1 101.12     LegendNANA

Notes on Data Quality.

Legend

  • E = Estimated
  • M = Missing
  • NA = Not Available*
  • [empty] = Indicates an unobserved value
Date modified: